This is the latest recevied weather packets stored in our database for station/object KC1IUC-13. If no packets are shown the sender has not sent any weather packets the latest 10 day(s).
| Time | Temp. | Humidity | Pressure | Rain* | Wind** | Luminosity | Snow |
|---|---|---|---|---|---|---|---|
| 1777166284 | 4.44° C | 83% | 1014.9 hPa | 2.29 mm | - | 0 W/m² | - |
| 1777165744 | 4.44° C | 83% | 1014.9 hPa | 2.29 mm | - | 0 W/m² | - |
| 1777165204 | 4.44° C | 83% | 1014.5 hPa | 2.03 mm | - | 0 W/m² | - |
| 1777164844 | 4.44° C | 83% | 1014.5 hPa | 2.03 mm | - | 0 W/m² | - |
| 1777164304 | 4.44° C | 83% | 1014.5 hPa | 2.03 mm | - | 0 W/m² | - |
| 1777163764 | 4.44° C | 83% | 1014.5 hPa | 1.78 mm | - | 0 W/m² | - |
| 1777163224 | 4.44° C | 83% | 1014.5 hPa | 1.52 mm | - | 0 W/m² | - |
| 1777162684 | 4.44° C | 82% | 1014.2 hPa | 1.52 mm | - | 0 W/m² | - |
| 1777162144 | 4.44° C | 82% | 1013.8 hPa | 1.27 mm | - | 0 W/m² | - |
| 1777161604 | 4.44° C | 82% | 1014.2 hPa | 1.27 mm | - | 0 W/m² | - |
| 1777161244 | 4.44° C | 82% | 1014.2 hPa | 1.02 mm | - | 0 W/m² | - |
| 1777160704 | 4.44° C | 82% | 1014.2 hPa | 0.76 mm | - | 0 W/m² | - |
| 1777160164 | 5° C | 82% | 1013.8 hPa | 0.51 mm | - | 0 W/m² | - |
| 1777159624 | 5° C | 81% | 1013.5 hPa | 0.76 mm | - | 1 W/m² | - |
| 1777159084 | 5° C | 81% | 1013.5 hPa | 0.76 mm | - | 2 W/m² | - |
| 1777158544 | 5° C | 81% | 1013.1 hPa | 0.51 mm | - | 3 W/m² | - |
| 1777158004 | 5° C | 81% | 1013.1 hPa | 0.51 mm | - | 4 W/m² | - |
| 1777157644 | 5° C | 81% | 1012.8 hPa | 0.76 mm | - | 6 W/m² | - |
| 1777157104 | 5° C | 80% | 1013.1 hPa | 0.76 mm | - | 6 W/m² | - |
| 1777156564 | 5° C | 80% | 1013.5 hPa | 1.02 mm | - | 7 W/m² | - |
| 1777156024 | 5° C | 80% | 1013.1 hPa | 0.76 mm | - | 12 W/m² | - |
| 1777155484 | 5.56° C | 80% | 1013.1 hPa | 0.51 mm | - | 17 W/m² | - |
| 1777154944 | 5.56° C | 79% | 1013.1 hPa | 0.51 mm | - | 20 W/m² | - |
| 1777154404 | 5.56° C | 79% | 1013.1 hPa | 0.51 mm | - | 23 W/m² | - |
| 1777154044 | 5.56° C | 79% | 1013.1 hPa | 0.51 mm | - | 32 W/m² | - |
* Rain latest hour (hover to see other rain measurements)
** Current wind speed in m/s (hover to see current wind gust speed)